EN

Hourly Weather Tocuila

Today, 23 April, Friday

Time Temperature Precipitation Wind Pressure Humidity
00:00 +21°C° 0 mm 1 mps 662 mmHg 82%
01:00 +21°C° 0 mm 1 mps 661 mmHg 79%
02:00 +21°C° 0 mm 1 mps 661 mmHg 75%
03:00 +21°C° 0 mm 1 mps 661 mmHg 72%
04:00 +21°C° 0 mm 1 mps 661 mmHg 69%
05:00 +21°C° 0 mm 1 mps 661 mmHg 67%
06:00 +21°C° 0 mm 1 mps 661 mmHg 64%
07:00 +23°C° 0 mm 1 mps 661 mmHg 58%
08:00 +25°C° 0 mm 1 mps 662 mmHg 51%
09:00 +28°C° 0 mm 1 mps 662 mmHg 45%
10:00 +29°C° 0 mm 2 mps 662 mmHg 42%
11:00 +31°C° 0 mm 2 mps 662 mmHg 38%
12:00 +32°C° 0 mm 2 mps 662 mmHg 35%
13:00 +32°C° 0 mm 2 mps 662 mmHg 36%
14:00 +32°C° 0 mm 2 mps 661 mmHg 37%
15:00 +32°C° 0 mm 2 mps 660 mmHg 38%
16:00 +31°C° 0.1 mm 2 mps 660 mmHg 43%
17:00 +29°C° 0.1 mm 2 mps 660 mmHg 49%
18:00 +28°C° 0.1 mm 1 mps 660 mmHg 54%
19:00 +27°C° 0 mm 1 mps 660 mmHg 58%
20:00 +25°C° 0 mm 1 mps 660 mmHg 63%
21:00 +24°C° 0 mm 1 mps 661 mmHg 67%
22:00 +24°C° 0 mm 1 mps 660 mmHg 64%
23:00 +24°C° 0 mm 2 mps 660 mmHg 60%

Tomorrow, 24 April, Saturday

Time Temperature Precipitation Wind Pressure Humidity
00:00 +24°C° 0 mm 2 mps 660 mmHg 57%
01:00 +23°C° 0 mm 2 mps 659 mmHg 54%
02:00 +23°C° 0 mm 2 mps 659 mmHg 51%
03:00 +23°C° 0 mm 2 mps 658 mmHg 48%
04:00 +22°C° 0 mm 3 mps 659 mmHg 46%
05:00 +22°C° 0 mm 3 mps 659 mmHg 44%
06:00 +22°C° 0 mm 3 mps 659 mmHg 43%
07:00 +26°C° 0 mm 2 mps 660 mmHg 37%
08:00 +29°C° 0 mm 2 mps 661 mmHg 31%
09:00 +31°C° 0 mm 1 mps 662 mmHg 25%
10:00 +34°C° 0 mm 2 mps 662 mmHg 24%
11:00 +35°C° 0 mm 2 mps 662 mmHg 23%
12:00 +36°C° 0 mm 3 mps 662 mmHg 22%
13:00 +35°C° 0 mm 3 mps 662 mmHg 26%
14:00 +35°C° 0 mm 4 mps 661 mmHg 30%
15:00 +34°C° 0 mm 4 mps 661 mmHg 34%
16:00 +33°C° 0.3 mm 3 mps 661 mmHg 43%
17:00 +30°C° 0.3 mm 3 mps 661 mmHg 51%
18:00 +28°C° 0.3 mm 2 mps 661 mmHg 60%
19:00 +26°C° 0.9 mm 2 mps 661 mmHg 68%
20:00 +25°C° 0.9 mm 1 mps 662 mmHg 75%
21:00 +23°C° 0.9 mm 1 mps 662 mmHg 83%
22:00 +23°C° 0.1 mm 1 mps 662 mmHg 83%
23:00 +23°C° 0.1 mm 1 mps 662 mmHg 84%

Day after tomorrow, 25 April, Sunday

Time Temperature Precipitation Wind Pressure Humidity
00:00 +22°C° 0.1 mm 1 mps 662 mmHg 84%
01:00 +22°C° 0 mm 1 mps 662 mmHg 84%
02:00 +22°C° 0 mm 1 mps 661 mmHg 83%
03:00 +22°C° 0 mm 1 mps 661 mmHg 82%
04:00 +21°C° 0 mm 1 mps 661 mmHg 83%
05:00 +21°C° 0 mm 1 mps 661 mmHg 83%
06:00 +21°C° 0 mm 1 mps 662 mmHg 84%
07:00 +23°C° 0 mm 1 mps 662 mmHg 76%
08:00 +25°C° 0 mm 1 mps 663 mmHg 69%
09:00 +27°C° 0 mm 2 mps 664 mmHg 61%
10:00 +28°C° 0 mm 2 mps 664 mmHg 57%
11:00 +29°C° 0 mm 2 mps 664 mmHg 53%
12:00 +30°C° 0 mm 3 mps 664 mmHg 50%
13:00 +30°C° 0.2 mm 3 mps 663 mmHg 51%
14:00 +30°C° 0.2 mm 3 mps 663 mmHg 52%
15:00 +30°C° 0.2 mm 3 mps 662 mmHg 53%
16:00 +28°C° 0.1 mm 3 mps 662 mmHg 62%
17:00 +27°C° 0.1 mm 2 mps 662 mmHg 72%
18:00 +25°C° 0.1 mm 2 mps 662 mmHg 81%
19:00 +24°C° 0.1 mm 1 mps 662 mmHg 84%
20:00 +24°C° 0.1 mm 1 mps 662 mmHg 86%
21:00 +21°C° 0.1 mm 0 mps 663 mmHg 89%
22:00 +20°C° 0 mm 0 mps 663 mmHg 88%
23:00 +22°C° 0 mm 1 mps 662 mmHg 88%

26 April, Monday

Time Temperature Precipitation Wind Pressure Humidity
00:00 +21°C° 0 mm 1 mps 662 mmHg 87%
01:00 +21°C° 0 mm 1 mps 662 mmHg 84%
02:00 +21°C° 0 mm 1 mps 661 mmHg 80%
03:00 +21°C° 0 mm 1 mps 661 mmHg 76%
04:00 +21°C° 0 mm 1 mps 661 mmHg 73%
05:00 +20°C° 0 mm 1 mps 661 mmHg 70%
06:00 +20°C° 0 mm 1 mps 661 mmHg 67%
07:00 +23°C° 0 mm 1 mps 662 mmHg 59%
08:00 +26°C° 0 mm 1 mps 662 mmHg 51%
09:00 +28°C° 0 mm 1 mps 663 mmHg 42%
10:00 +30°C° 0 mm 2 mps 663 mmHg 39%
11:00 +32°C° 0 mm 2 mps 663 mmHg 36%
12:00 +34°C° 0 mm 3 mps 663 mmHg 32%
13:00 +34°C° 0 mm 3 mps 662 mmHg 33%
14:00 +34°C° 0 mm 3 mps 662 mmHg 33%
15:00 +35°C° 0 mm 3 mps 661 mmHg 34%
16:00 +33°C° 0 mm 3 mps 661 mmHg 39%
17:00 +31°C° 0 mm 2 mps 661 mmHg 44%
18:00 +29°C° 0 mm 2 mps 661 mmHg 50%
19:00 +27°C° 0 mm 2 mps 661 mmHg 57%
20:00 +25°C° 0 mm 1 mps 661 mmHg 64%
21:00 +24°C° 0 mm 1 mps 661 mmHg 72%
22:00 +23°C° 0 mm 1 mps 661 mmHg 71%
23:00 +23°C° 0 mm 1 mps 661 mmHg 71%

27 April, Tuesday

Time Temperature Precipitation Wind Pressure Humidity
00:00 +23°C° 0 mm 1 mps 661 mmHg 70%
01:00 +23°C° 0 mm 1 mps 661 mmHg 68%
02:00 +23°C° 0 mm 1 mps 660 mmHg 65%
03:00 +23°C° 0 mm 1 mps 660 mmHg 63%
04:00 +22°C° 0 mm 1 mps 660 mmHg 63%
05:00 +22°C° 0 mm 1 mps 661 mmHg 63%
06:00 +22°C° 0 mm 1 mps 661 mmHg 63%
07:00 +25°C° 0 mm 1 mps 661 mmHg 56%
08:00 +27°C° 0 mm 1 mps 662 mmHg 50%
09:00 +30°C° 0 mm 1 mps 662 mmHg 44%
10:00 +31°C° 0 mm 2 mps 662 mmHg 41%
11:00 +34°C° 0 mm 2 mps 662 mmHg 38%
12:00 +35°C° 0 mm 3 mps 662 mmHg 35%
13:00 +35°C° 0.2 mm 3 mps 661 mmHg 36%
14:00 +35°C° 0.2 mm 3 mps 661 mmHg 37%
15:00 +35°C° 0.2 mm 3 mps 660 mmHg 38%
16:00 +34°C° 0.5 mm 3 mps 660 mmHg 43%
17:00 +31°C° 0.5 mm 2 mps 660 mmHg 48%
18:00 +30°C° 0.5 mm 2 mps 660 mmHg 54%
19:00 +28°C° 0.1 mm 2 mps 660 mmHg 61%
20:00 +26°C° 0.1 mm 1 mps 660 mmHg 69%
21:00 +24°C° 0.1 mm 1 mps 660 mmHg 76%
22:00 +24°C° 0 mm 1 mps 660 mmHg 75%
23:00 +24°C° 0 mm 1 mps 660 mmHg 74%

28 April, Wednesday

Time Temperature Precipitation Wind Pressure Humidity
00:00 +24°C° 0 mm 1 mps 660 mmHg 73%
01:00 +24°C° 0 mm 2 mps 659 mmHg 72%
02:00 +24°C° 0 mm 2 mps 659 mmHg 70%
03:00 +23°C° 0 mm 2 mps 658 mmHg 68%
04:00 +23°C° 0 mm 2 mps 659 mmHg 66%
05:00 +23°C° 0 mm 2 mps 659 mmHg 64%
06:00 +23°C° 0 mm 2 mps 659 mmHg 62%
07:00 +26°C° 0 mm 2 mps 660 mmHg 53%
08:00 +29°C° 0 mm 2 mps 660 mmHg 43%
09:00 +32°C° 0 mm 1 mps 661 mmHg 33%
10:00 +35°C° 0 mm 2 mps 661 mmHg 30%
11:00 +36°C° 0 mm 2 mps 661 mmHg 27%
12:00 +38°C° 0 mm 3 mps 661 mmHg 25%
13:00 +37°C° 0.1 mm 3 mps 660 mmHg 27%
14:00 +37°C° 0.1 mm 3 mps 660 mmHg 30%
15:00 +36°C° 0.1 mm 3 mps 659 mmHg 33%
16:00 +31°C° 2.9 mm 3 mps 659 mmHg 50%
17:00 +27°C° 2.9 mm 3 mps 660 mmHg 68%
18:00 +22°C° 2.9 mm 3 mps 660 mmHg 85%
19:00 +22°C° 0.8 mm 3 mps 660 mmHg 82%
20:00 +23°C° 0.8 mm 2 mps 660 mmHg 80%
21:00 +23°C° 0.8 mm 2 mps 661 mmHg 77%
22:00 +23°C° 0.4 mm 2 mps 661 mmHg 76%
23:00 +23°C° 0.4 mm 2 mps 661 mmHg 74%
Show more

We Need Your Consent

Meteoprog and our Service Providers may store and access personal data such as cookies, device identifiers or other similar technologies on your device and process such data to personalise content and ads, as well as provide social media features and to analyse the traffic.

  • Store and/or access information on your device

    Cookies, device identifiers or other information can be stored or accessed on your device for the purposes indicated above.

  • Personalised ads and content, ad and content measurement, audience insights, and products development

    Ads and content can be personalised based on a profile. More data can be added to better personalise ads and content. Ad and content performance can be measured. Insights about the audience who saw the ads and content can be derived. Such data can be used to develop or improve user’s experience, systems and software.

By clicking ‘I Agree’ you will allow the use of indicated cookies, device identifiers, web beacons or other similar technologies. Your settings can be changed in the browser on your device.

For certain purposes, legitimate interests may be relied on, rather than consent. You can read more about this in our Privacy and Cookie Policy.